Weather reports worldwide

Advertisment
Hereford/Credenhill, United Kingdom (3522): temperature & dewpoint: 15.02.2019 20:00:00 - 21.02.2019 20:00:00 (GMT)Hereford/Credenhill, United Kingdom (3522): temperature -20cm & temperature -100cm: 15.02.2019 20:00:00 - 21.02.2019 20:00:00 (GMT)Hereford/Credenhill, United Kingdom (3522): wind speed: 15.02.2019 20:00:00 - 21.02.2019 20:00:00 (GMT)Hereford/Credenhill, United Kingdom (3522): wind direction: 15.02.2019 20:00:00 - 21.02.2019 20:00:00 (GMT)Hereford/Credenhill, United Kingdom (3522): reduced air pressure: 15.02.2019 20:00:00 - 21.02.2019 20:00:00 (GMT)Hereford/Credenhill, United Kingdom (3522): visibility: 15.02.2019 20:00:00 - 21.02.2019 20:00:00 (GMT)Hereford/Credenhill, United Kingdom (3522): precipitation: 15.02.2019 20:00:00 - 21.02.2019 20:00:00 (GMT)
Date & Time tt [°C] td [°C] tt -20cm [°C] tt -100cm [°C] ff [km/h] ff [kn] dd ppp [hPa] vv [km] rr [mm]
21.02.2019 20:00:00 7,3 6,5 - - 2 1 W 1029,1 9 0,0
21.02.2019 19:00:00 8,3 6,6 - - 4 2 S 1028,5 14 0,0
21.02.2019 18:00:00 10,2 7,4 - - 5 3 S 1027,5 15 0,0
21.02.2019 17:00:00 12,4 8,2 - - 5 3 S 1026,6 24 0,0
21.02.2019 16:00:00 15,9 8,4 - - 5 3 SSW 1025,9 28 0,0
21.02.2019 15:00:00 16,8 8,9 - - 5 3 S 1025,6 24 0,0
21.02.2019 14:00:00 16,7 8,9 - - 5 3 S 1025,5 30 0,0
21.02.2019 13:00:00 16,7 8,9 - - 5 3 S 1025,1 24 0,0
21.02.2019 12:00:00 16,2 9,5 - - 5 3 S 1024,9 24 0,0
21.02.2019 11:00:00 14,7 8,5 - - 8 4 SSW 1024,9 30 0,0
21.02.2019 10:00:00 14,0 9,3 - - 4 2 SSW 1024,6 25 0,0
21.02.2019 09:00:00 11,0 9,3 6,5 7,2 5 3 WSW 1024,3 18 0,0
21.02.2019 08:00:00 10,1 9,0 - - 2 1 WSW 1023,5 26 0,0
21.02.2019 07:00:00 9,8 8,6 - - 5 3 S 1022,6 23 0,0
21.02.2019 06:00:00 9,4 8,1 - - 4 2 S 1022,3 20 0,0
21.02.2019 05:00:00 9,6 8,2 - - 5 3 S 1021,7 22 0,0
21.02.2019 04:00:00 9,5 8,0 - - 5 3 S 1021,3 18 0,0
21.02.2019 03:00:00 9,4 7,6 - - 4 2 S 1021,2 20 0,0
21.02.2019 02:00:00 9,3 7,6 - - 5 3 S 1020,8 19 0,0
21.02.2019 01:00:00 8,6 7,1 - - 5 3 SSW 1020,7 17 0,0
21.02.2019 00:00:00 9,0 7,4 - - 4 2 SSW 1020,4 16 0,0
20.02.2019 23:00:00 9,4 7,4 - - 11 6 SSW 1020,0 18 0,0
20.02.2019 22:00:00 9,3 7,6 - - 4 2 S 1020,0 16 0,0
20.02.2019 21:00:00 9,3 7,6 - - 8 4 S 1019,6 14 0,0
20.02.2019 20:00:00 9,4 7,5 - - 5 3 SSW 1019,5 16 0,0
20.02.2019 19:00:00 9,6 7,4 - - 8 4 S 1019,3 17 0,0
20.02.2019 18:00:00 10,1 7,2 - - 5 3 S 1018,2 21 0,0
20.02.2019 17:00:00 10,7 6,9 - - 4 2 SSW 1017,7 26 0,0
20.02.2019 16:00:00 11,2 6,7 - - 8 4 S 1018,0 35 0,0
20.02.2019 15:00:00 11,8 6,9 - - 8 4 SSW 1017,9 30 -
20.02.2019 14:00:00 10,9 6,6 - - 4 2 S 1018,0 29 -
20.02.2019 13:00:00 11,9 7,1 - - 5 3 S 1017,6 24 0,0
20.02.2019 12:00:00 10,1 6,2 - - 4 2 S 1018,1 23 0,0
20.02.2019 11:00:00 9,9 6,8 - - 5 3 S 1017,5 21 0,0
20.02.2019 10:00:00 9,1 6,2 - - 8 4 SSW 1017,3 29 0,0
20.02.2019 09:00:00 8,5 6,2 6,0 7,2 8 4 SSW 1016,8 25 0,0
20.02.2019 08:00:00 8,0 5,6 - - 5 3 S 1016,0 26 0,0
20.02.2019 07:00:00 8,0 5,4 - - 5 3 S 1015,7 24 0,0
20.02.2019 06:00:00 7,9 5,6 - - 5 3 S 1015,6 27 0,0
20.02.2019 05:00:00 7,9 5,4 - - 4 2 S 1015,7 26 0,0
20.02.2019 04:00:00 7,8 5,3 - - 4 2 S 1015,8 30 0,0
20.02.2019 03:00:00 7,6 5,2 - - 5 3 SSW 1015,9 28 0,0
20.02.2019 02:00:00 7,7 5,1 - - 5 3 S 1016,3 30 0,0
20.02.2019 01:00:00 7,6 5,0 - - 4 2 SSW 1016,5 25 0,0
20.02.2019 00:00:00 7,5 4,9 - - 4 2 S 1016,5 29 0,0
19.02.2019 23:00:00 7,4 4,9 - - 4 2 S 1016,7 22 0,0
19.02.2019 22:00:00 7,9 4,3 - - 5 3 SSW 1016,8 29 0,0
19.02.2019 21:00:00 7,9 4,2 - - 4 2 S 1016,7 30 0,0
19.02.2019 20:00:00 7,8 4,5 - - 4 2 S 1016,7 35 0,0
19.02.2019 19:00:00 7,8 4,5 - - 4 2 SSW 1016,8 26 0,0
19.02.2019 18:00:00 8,0 3,6 - - 4 2 SSW 1016,7 40 0,0
19.02.2019 17:00:00 8,5 3,5 - - 9 5 SSW 1016,7 40 0,0
19.02.2019 16:00:00 9,3 3,6 - - 8 4 SSW 1017,1 40 0,0
19.02.2019 15:00:00 9,4 3,4 - - 9 5 SSW 1017,5 40 0,0
19.02.2019 14:00:00 10,4 4,2 - - 9 5 SSW 1017,5 35 0,0
19.02.2019 13:00:00 9,9 4,9 - - 9 5 SW 1018,0 30 0,0
19.02.2019 12:00:00 10,0 3,0 - - 9 5 SW 1018,2 40 0,0
19.02.2019 11:00:00 10,2 3,3 - - 13 7 SSW 1018,1 40 0,0
19.02.2019 10:00:00 8,2 5,0 - - 4 2 SSW 1018,1 25 0,0
19.02.2019 09:00:00 6,9 3,9 5,9 7,2 2 1 SSW 1018,0 24 0,0
19.02.2019 08:00:00 4,0 2,1 - - 4 2 SE 1017,9 25 0,0
19.02.2019 07:00:00 5,6 2,4 - - 11 6 WSW 1017,2 28 0,0
19.02.2019 06:00:00 5,6 3,3 - - 5 3 WSW 1017,2 22 0,0
19.02.2019 05:00:00 6,2 4,1 - - 9 5 WSW 1016,9 25 0,0
19.02.2019 04:00:00 4,0 3,1 - - 9 5 W 1016,7 23 0,0
19.02.2019 03:00:00 4,7 3,3 - - 8 4 W 1016,8 19 0,0
19.02.2019 02:00:00 5,6 3,5 - - 8 4 WSW 1016,7 24 0,0
19.02.2019 01:00:00 6,2 3,9 - - 8 4 SW 1016,3 25 0,0
19.02.2019 00:00:00 7,4 4,1 - - 11 6 WSW 1015,9 28 0,0
18.02.2019 23:00:00 6,9 3,8 - - 8 4 SW 1015,6 30 0,0
18.02.2019 22:00:00 7,0 3,4 - - 9 5 WSW 1015,4 30 0,0
18.02.2019 21:00:00 6,4 3,6 - - 8 4 SW 1015,2 30 0,0
18.02.2019 20:00:00 7,2 3,3 - - 11 6 WSW 1014,6 30 0,0
18.02.2019 19:00:00 8,1 2,7 - - 15 8 SW 1014,3 29 0,0
18.02.2019 18:00:00 8,2 2,2 - - 11 6 WSW 1013,9 30 0,0
18.02.2019 17:00:00 9,1 0,4 - - 16 9 WSW 1013,1 35 0,0
18.02.2019 16:00:00 10,5 0,4 - - 16 9 WSW 1012,5 40 0,0
18.02.2019 15:00:00 10,9 1,9 - - 13 7 WSW 1012,4 40 0,0
18.02.2019 14:00:00 10,0 3,2 - - 13 7 SW 1012,8 40 0,0
18.02.2019 13:00:00 9,9 5,0 - - 8 4 SW 1013,0 28 0,0
18.02.2019 12:00:00 9,3 6,0 - - 5 3 SSW 1013,3 40 0,0
18.02.2019 11:00:00 8,6 6,3 - - 8 4 SW 1013,3 30 0,2
18.02.2019 10:00:00 8,9 5,6 - - 8 4 SSW 1012,8 40 0,0
18.02.2019 09:00:00 8,3 6,3 5,7 7,0 5 3 S 1012,7 24 0,0
18.02.2019 08:00:00 6,6 5,5 - - 4 2 SSW 1012,9 20 0,0
18.02.2019 07:00:00 6,2 5,1 - - 4 2 S 1012,5 20 0,0
18.02.2019 06:00:00 6,1 5,0 - - 4 2 S 1012,5 18 0,0
18.02.2019 05:00:00 6,9 5,8 - - 4 2 S 1012,7 17 0,0
18.02.2019 04:00:00 6,6 5,8 - - 4 2 SSE 1012,9 17 0,0
18.02.2019 03:00:00 6,9 5,6 - - 4 2 S 1013,1 17 0,0
18.02.2019 02:00:00 7,6 5,7 - - 5 3 S 1013,1 21 0,0
18.02.2019 01:00:00 7,7 5,8 - - 4 2 SSW 1013,3 19 0,0
18.02.2019 00:00:00 7,8 6,2 - - 5 3 S 1013,2 18 0,0
17.02.2019 23:00:00 8,1 6,2 - - 5 3 S 1013,2 17 0,0
17.02.2019 22:00:00 7,8 5,5 - - 8 4 S 1013,2 18 0,0
17.02.2019 21:00:00 7,0 4,5 - - 4 2 S 1013,0 25 0,0
17.02.2019 20:00:00 6,8 5,1 - - 4 2 SW 1013,1 24 0,0
17.02.2019 19:00:00 6,6 5,5 - - 4 2 SE 1012,7 22 0,0
17.02.2019 18:00:00 8,1 5,8 - - 2 1 SSW 1012,3 30 0,0
17.02.2019 17:00:00 9,9 7,2 - - 4 2 S 1011,8 21 0,2
17.02.2019 16:00:00 11,4 5,5 - - 9 5 SSW 1011,5 27 0,0
17.02.2019 15:00:00 11,7 7,8 - - 5 3 S 1011,8 23 0,0
17.02.2019 14:00:00 11,7 8,6 - - 4 2 S 1011,7 18 0,0
17.02.2019 13:00:00 11,1 8,3 - - 8 4 S 1011,8 14 0,0
17.02.2019 12:00:00 11,3 8,5 - - 5 3 S 1012,0 13 -
17.02.2019 11:00:00 9,7 7,0 - - 8 4 S 1012,0 12 -
17.02.2019 10:00:00 8,8 6,3 - - 8 4 S 1011,9 13 0,0
17.02.2019 09:00:00 7,8 4,9 5,7 7,0 8 4 SSE 1011,7 11 0,0
17.02.2019 08:00:00 6,2 4,6 - - 8 4 SE 1011,7 11 0,0
17.02.2019 07:00:00 3,4 1,9 - - 5 3 ESE 1012,2 2,8 0,0
17.02.2019 06:00:00 6,6 5,2 - - 8 4 ESE 1012,4 8 0,0
17.02.2019 05:00:00 6,7 5,4 - - 5 3 ESE 1013,3 9 0,0
17.02.2019 04:00:00 7,8 6,3 - - 5 3 ESE 1013,9 10 0,0
17.02.2019 03:00:00 9,1 7,4 - - 8 4 SE 1015,1 10 0,0
17.02.2019 02:00:00 9,8 8,0 - - 8 4 SE 1015,8 13 0,0
17.02.2019 01:00:00 9,7 7,7 - - 8 4 ESE 1016,5 20 0,0
17.02.2019 00:00:00 7,8 6,2 - - 5 3 S 1013,2 18 0,0
16.02.2019 23:00:00 9,7 7,8 - - 5 3 SSE 1018,4 21 0,0
16.02.2019 22:00:00 9,8 7,7 - - 4 2 ESE 1018,7 21 0,0
16.02.2019 21:00:00 10,4 8,3 - - 8 4 S 1018,9 17 0,0
16.02.2019 20:00:00 11,1 9,3 - - 5 3 S 1019,1 18 0,0
16.02.2019 19:00:00 11,4 9,5 - - 9 5 S 1019,1 22 0,0
16.02.2019 18:00:00 11,7 9,7 - - 11 6 S 1019,0 23 0,0
16.02.2019 17:00:00 11,9 9,4 - - 5 3 S 1018,9 30 0,0
16.02.2019 16:00:00 12,6 9,6 - - 5 3 S 1019,1 30 0,0
16.02.2019 15:00:00 12,9 9,6 - - 5 3 S 1019,6 29 0,0
16.02.2019 14:00:00 11,8 8,1 - - 5 3 S 1020,3 28 0,0
16.02.2019 13:00:00 12,7 6,8 - - 11 6 SSW 1020,8 30 0,0
16.02.2019 12:00:00 12,7 6,9 - - 9 5 SSW 1021,3 35 0,0
16.02.2019 11:00:00 13,0 7,1 - - 5 3 S 1021,4 35 0,0
16.02.2019 10:00:00 10,9 7,2 - - 4 2 S 1021,4 30 0,0
16.02.2019 09:00:00 8,0 7,6 5,0 7,2 4 2 SE 1021,6 28 0,0
16.02.2019 08:00:00 5,1 4,6 - - 2 1 SSW 1021,4 24 0,0
16.02.2019 07:00:00 5,5 4,2 - - 4 2 SSW 1020,7 24 0,0
16.02.2019 06:00:00 7,5 6,6 - - 4 2 SW 1020,5 8 0,0
16.02.2019 05:00:00 9,3 8,3 - - 4 2 SW 1020,3 8 0,0
16.02.2019 04:00:00 9,3 8,1 - - 5 3 S 1020,2 8 0,0
16.02.2019 03:00:00 9,4 8,3 - - 5 3 S 1020,2 9 0,0
16.02.2019 02:00:00 9,0 7,8 - - 4 2 SSW 1020,7 8 0,0
16.02.2019 01:00:00 9,0 7,4 - - 8 4 SSW 1020,7 7 0,0
16.02.2019 00:00:00 7,9 7,2 - - 5 3 SW 1020,9 8 0,0
15.02.2019 23:00:00 7,3 5,7 - - 9 5 SSE 1021,7 8 0,0
15.02.2019 22:00:00 6,0 5,2 - - 5 3 S 1022,0 6 0,0
15.02.2019 21:00:00 6,7 5,1 - - 4 2 S 1022,0 11 0,0
15.02.2019 20:00:00 7,6 6,2 - - 5 3 S 1022,4 15 0,0

tt = temperature
td = dewpoint
tt -20cm = temperature -20cm
tt -100cm = temperature -100cm
ff = wind speed
dd = wind direction
ppp = reduced air pressure
vv = visibility
rr = precipitation

Next stations